Flag for Canada Weather past 2 weeks in Grande Prairie, Alberta, Canada

36 °F

Passing clouds.

Feels Like: 36 °F
Forecast: 38 / 59 °F
Wind: 2 mph from West

Location: Grande Prairie

Current Time: Oct 7, 2015 at 7:32:20 AM

Latest Report: Oct 7, 2015 at 7:00 AM

Visibility: 25 mi

Pressure: 29.99 "Hg (27.64 "Hg at 657m altitude)

Humidity: 100%

Dew point: 36 °F

Location of Grande PrairieLocation

Historic Weather in Grande Prairie — Graph


Grande Prairie temperature yesterday

Maximum temperature yesterday: 52 °F (at 2:00 PM)
Minimum temperature yesterday: 28 °F (at 7:00 AM)
Average temperature yesterday: 39 °F

Past Weeks' High & Low Weather Summary

High73 °F (Sep 30, 3:00 PM)100% (Sep 22, 7:00 AM)30.63 "Hg (Sep 22, 7:00 AM)
Low25 °F (Sep 28, 7:00 AM)27% (Sep 25, 4:00 PM)29.79 "Hg (Sep 24, 5:00 PM)
Average45 °F70%30.05 "Hg
* Reported Sep 22 6:00 AM — Oct 7 6:00 AM, Grande Prairie, Weather by CustomWeather, © 2015

Note: Actual official high and low records may vary slightly from our data, if they occured in-between our weather recording intervals... More about our weather records


Grande Prairie weather history for previous 24 hours

Time TempWeatherWind HumidityBarometerVisibility
6:00 AM
Wed, Oct 7
36 °FPassing clouds.3 mph93%29.98 "Hg25 mi
5:00 AM37 °FPassing clouds.5 mph93%29.96 "Hg25 mi
4:00 AM41 °FOvercast.6 mph81%29.95 "Hg25 mi
3:00 AM41 °FMostly cloudy.5 mph87%29.95 "Hg25 mi
2:00 AM43 °FOvercast.2 mph81%29.94 "Hg25 mi
1:00 AM41 °FOvercast.2 mph87%29.96 "Hg25 mi
12:00 AM43 °FOvercast.No wind76%29.96 "Hg25 mi
11:00 PM
Tue, Oct 6
43 °FOvercast.No wind81%29.97 "Hg25 mi
10:00 PM45 °FOvercast.5 mph71%29.98 "Hg25 mi
9:00 PM45 °FMostly cloudy.No wind71%29.98 "Hg25 mi
8:00 PM46 °FCloudy.5 mph62%29.98 "Hg25 mi
7:00 PM46 °FPartly sunny.2 mph66%29.98 "Hg25 mi
6:00 PM50 °FPartly sunny.5 mph54%29.98 "Hg25 mi
5:00 PM50 °FPartly sunny.No wind54%29.99 "Hg25 mi
4:00 PM50 °FBroken clouds.2 mph50%30.00 "Hg25 mi
3:00 PM48 °FPartly sunny.No wind66%30.01 "Hg25 mi
2:00 PM52 °FPartly sunny.No wind54%30.02 "Hg25 mi
1:00 PM45 °FPartly sunny.2 mph57%30.05 "Hg25 mi
12:00 PM43 °FPartly sunny.5 mph61%30.05 "Hg25 mi
11:00 AM39 °FPartly sunny.2 mph70%30.06 "Hg25 mi
10:00 AM34 °FPartly sunny.No wind87%30.06 "Hg25 mi
9:00 AM30 °FPassing clouds.No wind93%30.05 "Hg25 mi
8:00 AM30 °FPartly cloudy.3 mph86%30.06 "Hg25 mi
7:00 AM28 °FPassing clouds.3 mph93%30.06 "Hg25 mi
Weather by CustomWeather, © 2015

See weather overviewHow to use our weather pages